Location: Asti
(44.9000°N, 8.2000°E)
Time: 09:37:16
(UTC+02:00)

ISS - Visible Passes

Search period start: 08 May 2021 00:00
Search period end: 18 May 2021 00:00
Orbit: 418 x 421 km, 51.6° (Epoch: 08 May)

Date Brightness Start Highest point End Pass type
(mag) Time Alt. Az. Time Alt. Az. Time Alt. Az.
08 May -2.0 02:49:25 34° NNE 02:49:25 34° NNE 02:51:47 10° NE visible
08 May -1.6 04:23:03 10° WNW 04:25:56 25° N 04:28:48 10° ENE visible
09 May -1.1 02:03:26 17° NE 02:03:26 17° NE 02:04:23 10° NE visible
09 May -1.6 03:36:22 16° NW 03:38:20 26° N 03:41:13 10° NE visible
09 May -1.9 05:12:40 10° NW 05:15:47 33° NNE 05:18:53 10° E visible
10 May -1.9 02:50:23 27° NNW 02:50:44 28° N 02:53:43 10° NE visible
10 May -1.7 04:25:13 10° NW 04:28:12 28° N 04:31:12 10° ENE visible
11 May -1.5 02:04:21 25° NNE 02:04:21 25° NNE 02:06:16 10° NE visible
11 May -1.5 03:37:43 10° NW 03:40:36 26° N 03:43:31 10° ENE visible
11 May -3.0 05:14:34 10° NW 05:17:54 56° NNE 05:21:15 10° ESE visible
12 May -0.9 01:18:16 14° NE 01:18:16 14° NE 01:18:51 10° NE visible
12 May -1.5 02:51:12 16° NW 02:53:00 25° N 02:55:53 10° ENE visible
12 May -2.4 04:27:10 10° NW 04:30:24 41° NNE 04:33:38 10° E visible
13 May -1.6 02:05:02 25° NNW 02:05:24 26° N 02:08:18 10° NE visible
13 May -1.9 03:39:45 10° NW 03:42:51 33° NNE 03:45:58 10° E visible
13 May -3.8 05:16:30 10° WNW 05:19:51 64° SW 05:23:12 10° SE visible
14 May -1.5 01:18:39 25° NNE 01:18:39 25° NNE 01:20:48 10° NE visible
14 May -1.6 02:52:18 10° NW 02:55:17 28° N 02:58:16 10° ENE visible
14 May -3.7 04:29:03 10° WNW 04:32:26 83° NNE 04:35:49 10° ESE visible
14 May -3.9 22:49:55 10° SW 22:53:14 64° SE 22:55:40 17° ENE visible
15 May -2.0 00:27:08 10° W 00:30:14 33° NNW 00:33:20 10° NE visible
15 May -1.5 02:04:47 10° NW 02:07:41 26° N 02:10:35 10° ENE visible
15 May -3.1 03:41:37 10° NW 03:44:58 57° NNE 03:48:18 10° ESE visible
15 May -2.6 05:18:47 10° W 05:21:35 24° SW 05:24:24 10° SSE visible
15 May -3.3 22:02:42 10° SSW 22:05:52 39° SE 22:09:02 10° ENE visible
15 May -2.4 23:39:28 10° W 23:42:41 41° NNW 23:45:55 10° NE visible
16 May -1.4 01:17:13 10° WNW 01:20:04 25° N 01:22:56 10° ENE visible
16 May -2.5 02:54:13 10° NW 02:57:27 41° NNE 03:00:41 10° E visible
16 May -3.3 04:31:05 10° WNW 04:34:16 39° SW 04:37:26 10° SSE visible
16 May -3.1 22:51:52 10° WSW 22:55:10 56° NNW 22:58:31 10° NE visible
17 May -1.5 00:29:34 10° WNW 00:32:28 25° N 00:35:21 10° NE visible
17 May -2.0 02:06:48 10° NW 02:09:55 33° NNE 02:13:01 10° E visible
17 May -3.9 03:43:33 10° WNW 03:46:54 63° SSW 03:50:14 10° SE visible
17 May -3.7 22:04:20 10° WSW 22:07:42 82° NNW 22:11:04 10° ENE visible
17 May -1.6 23:41:53 10° WNW 23:44:51 28° N 23:47:50 10° NE visible
